Location: �terpigny
(49.8910°N, 2.9249°E)
Time: 08:42:37
(UTC+00:00)

YAOGAN-30 N - Visible Passes

Search period start: 26 November 2022 00:00
Search period end: 06 December 2022 00:00
Orbit: 592 x 597 km, 35.0° (Epoch: 25 November)

Date Brightness Start Highest point End Pass type
(mag) Time Alt. Az. Time Alt. Az. Time Alt. Az.
26 Nov ? 18:19:49 10° SSW 18:21:23 12° S 18:22:18 11° S visible
27 Nov ? 16:47:21 10° S 16:48:23 11° S 16:49:24 10° SSE visible
27 Nov ? 18:28:10 10° SSW 18:29:20 11° S 18:30:14 10° S visible
28 Nov ? 16:54:46 10° SSW 16:56:20 12° S 16:57:53 10° SSE visible
29 Nov ? 17:02:43 10° SSW 17:04:17 12° S 17:05:50 10° SSE visible
30 Nov ? 17:11:09 10° SSW 17:12:14 11° S 17:13:17 10° S visible
